Location: El Recuerdo
(3.6589°N, 75.6172°W)
Time: 06:01:56
(UTC+00:00)

CZ-2D R/B - Pass Details

Date: 13 December 2025
Orbit: 525 x 597 km, 98.0° (Epoch: 24 January)

Event Time Altitude Azimuth Distance (km) Brightness Sun altitude
Rises 23:37:01 0° 161° (SSE) 2,832 7.0 -10.6°
Reaches altitude 10° 23:39:13 10° 157° (SSE) 1,933 6.1 -11.1°
Maximum altitude 23:43:20 58° 78° (ENE) 695 3.5 -12.1°
Drops below altitude 10° 23:47:28 10° 359° (N) 1,924 5.9 -13.0°
Sets 23:49:38 0° 355° (N) 2,819 6.8 -13.5°
